Location: El Álamo
(40.2307°N, 3.9945°W)
Time: 04:22:38
(UTC+00:00)

CZ-2C R/B - Pass Details

Date: 19 May 2025
Orbit: 631 x 692 km, 98.1° (Epoch: 23 June)

Event Time Altitude Azimuth Distance (km) Brightness Sun altitude
Rises 23:16:24 0° 9° (N) 2,933 8.0 -28.4°
Reaches altitude 10° 23:18:37 10° 6° (N) 2,020 7.0 -28.5°
Enters shadow 23:22:00 49° 341° (NNW) 818 4.4 -28.6°
